| time (UTC) | temp C | wind direction | speed KPH | gust KPH | rain 1hr cm | rain 24hr cm | rain mn cm | humidity % | barometer mb |
| 20260503005252 | 10 | 0 | 0.0 | 0.0 | 0.00 | 0.00 | 0.00 | 69 | |
| 20260503004252 | 10 | 272 | 0.0 | 0.0 | 0.00 | 0.00 | 0.00 | 67 | |
| 20260503003232 | 11 | 266 | 0.0 | 0.0 | 0.00 | 0.00 | 0.00 | 68 | |
| 20260503001232 | 12 | 276 | 1.6 | 1.6 | 0.00 | 0.00 | 0.00 | 63 | |
| 20260503000233 | 12 | 0 | 0.0 | 0.0 | 0.00 | 0.00 | 0.00 | 63 | |
| 20260502235232 | 12 | 257 | 1.6 | 1.6 | 0.00 | 0.00 | 0.00 | 61 | |
| 20260502234232 | 12 | 257 | 0.0 | 1.6 | 0.00 | 0.00 | 0.00 | 61 | |
| 20260502233212 | 13 | 266 | 0.0 | 0.0 | 0.00 | 0.00 | 0.00 | 61 | |
| 20260502232212 | 13 | 267 | 1.6 | 3.2 | 0.00 | 0.00 | 0.00 | 61 | |
| 20260502231152 | 13 | 245 | 3.2 | 3.2 | 0.00 | 0.00 | 0.00 | 60 | |
| 20260502230152 | 13 | 266 | 1.6 | 1.6 | 0.00 | 0.00 | 0.00 | 60 | |
| 20260502225152 | 13 | 252 | 1.6 | 1.6 | 0.00 | 0.00 | 0.00 | 60 | |
| 20260502224132 | 13 | 256 | 1.6 | 1.6 | 0.00 | 0.00 | 0.00 | 60 | |
| 20260502223132 | 13 | 260 | 1.6 | 1.6 | 0.00 | 0.00 | 0.00 | 60 | |
| 20260502222112 | 13 | 260 | 0.0 | 1.6 | 0.00 | 0.00 | 0.00 | 61 | |
| 20260502221112 | 13 | 262 | 0.0 | 0.0 | 0.00 | 0.00 | 0.00 | 61 | |
| 20260502220052 | 13 | 268 | 0.0 | 0.0 | 0.00 | 0.00 | 0.00 | 60 | |
| 20260502215052 | 14 | 0 | 0.0 | 0.0 | 0.00 | 0.00 | 0.00 | 59 | |
| 20260502214032 | 14 | 265 | 1.6 | 1.6 | 0.00 | 0.00 | 0.00 | 58 | |
| 20260502213032 | 15 | 263 | 1.6 | 3.2 | 0.00 | 0.00 | 0.00 | 57 | |
| 20260502212012 | 15 | 262 | 1.6 | 1.6 | 0.00 | 0.00 | 0.00 | 57 | |
| 20260502211012 | 15 | 272 | 1.6 | 1.6 | 0.00 | 0.00 | 0.00 | 56 | |
| 20260502205952 | 15 | 263 | 1.6 | 3.2 | 0.00 | 0.00 | 0.00 | 55 | |
| 20260502204952 | 15 | 254 | 1.6 | 3.2 | 0.00 | 0.00 | 0.00 | 54 | |
| 20260502203952 | 15 | 263 | 1.6 | 3.2 | 0.00 | 0.00 | 0.00 | 54 | |
| 20260502202932 | 15 | 248 | 1.6 | 1.6 | 0.00 | 0.00 | 0.00 | 54 | |
| 20260502201932 | 15 | 0 | 0.0 | 0.0 | 0.00 | 0.00 | 0.00 | 54 | |
| 20260502200932 | 15 | 256 | 0.0 | 0.0 | 0.00 | 0.00 | 0.00 | 52 | |
| 20260502195932 | 15 | 247 | 0.0 | 1.6 | 0.00 | 0.00 | 0.00 | 52 | |
| 20260502194932 | 15 | 0 | 0.0 | 0.0 | 0.00 | 0.00 | 0.00 | 54 | |
| 20260502193912 | 15 | 259 | 0.0 | 0.0 | 0.00 | 0.00 | 0.00 | 55 | |
| 20260502192912 | 15 | 0 | 0.0 | 0.0 | 0.00 | 0.00 | 0.00 | 52 | |
| 20260502191912 | 16 | 259 | 0.0 | 0.0 | 0.00 | 0.00 | 0.00 | 47 | |
| 20260502190912 | 17 | 265 | 0.0 | 1.6 | 0.00 | 0.00 | 0.00 | 45 | |
| 20260502185852 | 17 | 260 | 1.6 | 3.2 | 0.00 | 0.00 | 0.00 | 45 | |
| 20260502184832 | 17 | 270 | 0.0 | 1.6 | 0.00 | 0.00 | 0.00 | 45 | |
| 20260502183832 | 18 | 241 | 1.6 | 1.6 | 0.00 | 0.00 | 0.00 | 42 | |
| 20260502182812 | 19 | 242 | 1.6 | 3.2 | 0.00 | 0.00 | 0.00 | 41 | |
| 20260502181812 | 20 | 252 | 4.8 | 3.2 | 0.00 | 0.00 | 0.00 | 38 | |
| 20260502163632 | 23 | 243 | 6.4 | 11.3 | 0.00 | 0.00 | 0.00 | 31 | |
| 20260502162612 | 24 | 263 | 9.7 | 12.9 | 0.00 | 0.00 | 0.00 | 29 | |
| 20260502161612 | 24 | 260 | 8.0 | 12.9 | 0.00 | 0.00 | 0.00 | 31 | |
| 20260502160612 | 25 | 272 | 8.0 | 11.3 | 0.00 | 0.00 | 0.00 | 31 | |
| 20260502151512 | 25 | 235 | 3.2 | 6.4 | 0.00 | 0.00 | 0.00 | 33 | |
| 20260502150512 | 25 | 218 | 8.0 | 8.0 | 0.00 | 0.00 | 0.00 | 29 | |
| 20260502130351 | 25 | 250 | 11.3 | 11.3 | 0.00 | 0.00 | 0.00 | 30 | |
| 20260502123311 | 25 | 259 | 4.8 | 6.4 | 0.00 | 0.00 | 0.00 | 29 | |
| 20260502122252 | 25 | 259 | 8.0 | 14.5 | 0.00 | 0.00 | 0.00 | 30 | |
| 20260502121251 | 25 | 263 | 8.0 | 12.9 | 0.00 | 0.00 | 0.00 | 30 | |
| 20260502120232 | 25 | 231 | 6.4 | 6.4 | 0.00 | 0.00 | 0.00 | 35 | |
| 20260502115231 | 24 | 242 | 6.4 | 9.7 | 0.00 | 0.00 | 0.00 | 29 | |
| 20260502114211 | 25 | 181 | 6.4 | 11.3 | 0.00 | 0.00 | 0.00 | 29 | |
| 20260502113211 | 24 | 234 | 8.0 | 12.9 | 0.00 | 0.00 | 0.00 | 29 | |
| 20260502112151 | 25 | 272 | 14.5 | 17.7 | 0.00 | 0.00 | 0.00 | 30 | |
| 20260502111151 | 25 | 291 | 8.0 | 12.9 | 0.00 | 0.00 | 0.00 | 29 | |
| 20260502110151 | 23 | 211 | 8.0 | 4.8 | 0.00 | 0.00 | 0.00 | 26 | |
| 20260502105151 | 24 | 251 | 4.8 | 6.4 | 0.00 | 0.00 | 0.00 | 28 | |
| 20260502104151 | 23 | 243 | 3.2 | 3.2 | 0.00 | 0.00 | 0.00 | 27 | |
| 20260502103131 | 23 | 252 | 4.8 | 9.7 | 0.00 | 0.00 | 0.00 | 31 | |
| 20260502102131 | 23 | 264 | 8.0 | 8.0 | 0.00 | 0.00 | 0.00 | 32 | |
| 20260502101111 | 23 | 257 | 4.8 | 8.0 | 0.00 | 0.00 | 0.00 | 33 | |
| 20260502100111 | 22 | 245 | 8.0 | 12.9 | 0.00 | 0.00 | 0.00 | 31 | |
| 20260502091031 | 22 | 274 | 4.8 | 6.4 | 0.00 | 0.00 | 0.00 | 29 | |
| 20260502070911 | 19 | 270 | 1.6 | 3.2 | 0.00 | 0.00 | 0.00 | 39 | |
| 20260502065851 | 18 | 265 | 1.6 | 1.6 | 0.00 | 0.00 | 0.00 | 40 | |
| 20260502064831 | 17 | 249 | 3.2 | 4.8 | 0.00 | 0.00 | 0.00 | 41 | |
| 20260502063831 | 17 | 263 | 1.6 | 4.8 | 0.00 | 0.00 | 0.00 | 44 | |
| 20260502062811 | 17 | 265 | 0.0 | 1.6 | 0.00 | 0.00 | 0.00 | 51 | |
| 20260502061811 | 16 | 233 | 0.0 | 1.6 | 0.00 | 0.00 | 0.00 | 52 | |
| 20260502060811 | 16 | 256 | 0.0 | 0.0 | 0.00 | 0.00 | 0.00 | 49 | |
| 20260502055751 | 15 | 0 | 0.0 | 0.0 | 0.00 | 0.00 | 0.00 | 55 | |
| 20260502054731 | 14 | 301 | 0.0 | 1.6 | 0.00 | 0.00 | 0.00 | 57 | |
| 20260502053731 | 13 | 271 | 0.0 | 1.6 | 0.00 | 0.00 | 0.00 | 64 | |
| 20260502052731 | 13 | 332 | 0.0 | 0.0 | 0.00 | 0.00 | 0.00 | 68 | |
| 20260502052511 | 13 | 0 | 0.0 | 0.0 | 0.00 | 0.00 | 0.00 | 71 | |
| 20260502051511 | 13 | 0 | 0.0 | 0.0 | 0.00 | 0.00 | 0.00 | 78 | |
| 20260502050511 | 10 | 266 | 0.0 | 0.0 | 0.00 | 0.00 | 0.00 | 95 | |
| 20260502045511 | 8 | 264 | 1.6 | 1.6 | 0.00 | 0.00 | 0.00 | 99 | |
| 20260502044511 | 8 | 263 | 0.0 | 0.0 | 0.00 | 0.00 | 0.00 | 99 | |
| 20260502043511 | 7 | 268 | 0.0 | 1.6 | 0.00 | 0.00 | 0.00 | 99 | |
| 20260502042451 | 7 | 280 | 1.6 | 1.6 | 0.00 | 0.00 | 0.00 | 99 | |
| 20260502041451 | 6 | 269 | 0.0 | 1.6 | 0.00 | 0.00 | 0.00 | 99 | |
| 20260502040431 | 6 | 270 | 1.6 | 1.6 | 0.00 | 0.00 | 0.00 | 99 | |
| 20260502035611 | 5 | 0 | 0.0 | 0.0 | 0.00 | 0.00 | 0.00 | 99 | |
| 20260502034611 | 5 | 0 | 0.0 | 0.0 | 0.00 | 0.00 | 0.00 | 99 | |
| 20260502033551 | 4 | 0 | 0.0 | 0.0 | 0.00 | 0.00 | 0.00 | 99 | |
| 20260502032551 | 3 | 0 | 0.0 | 0.0 | 0.00 | 0.00 | 0.00 | 99 | |
| 20260502031551 | 4 | 270 | 1.6 | 1.6 | 0.00 | 0.00 | 0.00 | 99 | |
| 20260502030551 | 3 | 0 | 0.0 | 0.0 | 0.00 | 0.00 | 0.00 | 99 | |
| 20260502025531 | 4 | 0 | 0.0 | 0.0 | 0.00 | 0.00 | 0.00 | 99 | |
| 20260502024511 | 3 | 0 | 0.0 | 0.0 | 0.00 | 0.00 | 0.00 | 99 | |
| 20260502023511 | 3 | 0 | 0.0 | 0.0 | 0.00 | 0.00 | 0.00 | 99 | |
| 20260502022511 | 3 | 0 | 0.0 | 0.0 | 0.00 | 0.00 | 0.00 | 99 | |
| 20260502021511 | 3 | 0 | 0.0 | 0.0 | 0.00 | 0.00 | 0.00 | 99 | |
| 20260502020511 | 4 | 0 | 0.0 | 0.0 | 0.00 | 0.00 | 0.00 | 99 | |
| 20260502015511 | 4 | 0 | 0.0 | 0.0 | 0.00 | 0.00 | 0.00 | 99 | |
| 20260502014511 | 4 | 0 | 0.0 | 0.0 | 0.00 | 0.00 | 0.00 | 99 | |
| 20260502013511 | 5 | 0 | 0.0 | 0.0 | 0.00 | 0.00 | 0.00 | 99 | |
| 20260502012451 | 5 | 0 | 0.0 | 0.0 | 0.00 | 0.00 | 0.00 | 99 | |
| 20260502011451 | 5 | 0 | 0.0 | 0.0 | 0.00 | 0.00 | 0.00 | 99 | |
| 20260502010451 | 5 | 0 | 0.0 | 0.0 | 0.00 | 0.00 | 0.00 | 99 |